Location: Unspecified
(37.0842°N, 0.0000°E)
Time: 11:16:02
(UTC+00:00)

Tiangong 2 - Visible Passes

Search period start: 21 May 2019 00:00
Search period end: 31 May 2019 00:00
Orbit: 379 x 387 km, 42.8° (Epoch: 21 May)

Date Brightness Start Highest point End Pass type
(mag) Time Alt. Az. Time Alt. Az. Time Alt. Az.
21 May 1.0 19:56:03 10° WSW 19:59:11 87° NNW 20:02:19 10° ENE visible
21 May 3.0 21:33:19 10° WNW 21:36:04 29° N 21:36:04 29° N visible
22 May 2.6 20:33:02 10° W 20:35:58 36° NNW 20:38:54 10° ENE visible
22 May 4.0 22:10:22 10° WNW 22:11:20 16° NW 22:11:20 16° NW visible
23 May 1.9 19:32:47 10° W 19:35:51 53° NNW 19:38:56 10° ENE visible
23 May 3.1 21:10:12 10° WNW 21:12:56 27° N 21:14:10 20° NE visible
24 May 2.9 20:09:55 10° WNW 20:12:44 30° N 20:15:33 10° NE visible
24 May 3.2 21:47:03 10° NW 21:49:04 27° NNW 21:49:04 27° NNW visible
25 May 2.9 20:46:57 10° WNW 20:49:43 27° N 20:51:41 15° ENE visible
25 May 4.3 22:23:38 10° WNW 22:23:52 12° WNW 22:23:52 12° WNW visible
26 May 3.0 19:46:46 10° WNW 19:49:30 27° N 19:52:14 10° ENE visible
26 May 2.2 21:23:38 10° WNW 21:26:26 40° N 21:26:26 40° N visible
27 May 2.6 20:23:36 10° NW 20:26:28 31° N 20:28:58 12° ENE visible
27 May 3.7 22:00:14 10° WNW 22:01:08 18° WNW 22:01:08 18° WNW visible
28 May 1.3 21:00:11 10° WNW 21:03:17 62° NNE 21:03:39 56° ENE visible
29 May 2.1 20:00:09 10° WNW 20:03:09 40° NNE 20:06:08 10° E visible
29 May 3.1 21:36:54 10° WNW 21:38:21 23° W 21:38:21 23° W visible
30 May 1.0 20:36:43 10° WNW 20:39:51 78° SSW 20:40:53 38° SE visible
